Timestamp,Temp,Chill,HIndex,Humid,Dewpt,Wind,HiWind,WindDir,Rain,RainRate,Barom,Solar,ET,UV,InsideTemp,InsideHumid
2015-05-07 00:00:00,47.1,47.1,47.1,80,41.2527946598397,3,9,315,0,0,29.494,0,0.001,0,71.4,36
2015-05-07 00:05:00,47,44.6943165720731,47,80,41.1554170050617,5,12,247.5,0,0,29.498,0,0,0,71.4,36
2015-05-07 00:10:00,47,45.404764430573,47,80,41.1554170050617,4,12,292.5,0,0,29.501,0,0,0,71.4,36
2015-05-07 00:15:00,46.9,46.9,46.9,80,41.0580387699053,3,11,292.5,0,0,29.503,0,0,0,71.4,36
2015-05-07 00:20:00,46.8,45.1737321686419,46.8,80,40.9606599543653,4,14,270,0,0,29.504,0,0,0,71.4,36
2015-05-07 00:25:00,46.7,44.341948927198,46.7,80,40.8632805584367,5,10,270,0,0,29.509,0,0,0,71.2,36
2015-05-07 00:30:00,46.6,44.9426999067108,46.6,80,40.765900582114,4,10,270,0,0,29.511,0,0,0,71.2,36
2015-05-07 00:35:00,46.6,43.6183392026424,46.6,80,40.765900582114,6,18,270,0,0,29.513,0,0,0,71.2,36
2015-05-07 00:40:00,46.6,43.091866159959,46.6,80,40.765900582114,7,13,292.5,0,0,29.516,0,0,0,71.2,36
2015-05-07 00:45:00,46.5,43.4992462058905,46.5,80,40.6685200253923,6,13,247.5,0,0,29.519,0,0,0,71.1,36
2015-05-07 00:50:00,46.5,43.4992462058905,46.5,80,40.6685200253923,6,14,247.5,0,0,29.518,0,0,0,71.1,35
2015-05-07 00:55:00,46.5,44.107037163948,46.5,80,40.6685200253923,5,14,270,0,0,29.521,0,0,0,70.9,35
2015-05-07 01:00:00,46.5,44.8271837757453,46.5,80,40.6685200253923,4,12,292.5,0,0,29.521,0,0.001,0,70.9,35
2015-05-07 01:05:00,46.5,44.107037163948,46.5,80,40.6685200253923,5,13,292.5,0,0,29.523,0,0,0,70.9,35
2015-05-07 01:10:00,46.5,46.5,46.5,80,40.6685200253923,3,10,292.5,0,0,29.527,0,0,0,70.9,35
2015-05-07 01:15:00,46.4,44.7116676447798,46.4,80,40.5711388882662,4,10,315,0,0,29.529,0,0,0,71.1,35
2015-05-07 01:20:00,46.3,44.5961515138142,46.3,80,40.4737571707306,4,12,292.5,0,0,29.531,0,0,0,71.1,35
2015-05-07 01:25:00,46.2,44.4806353828487,46.2,80,40.3763748727804,4,11,225,0,0,29.535,0,0,0,71.1,35
2015-05-07 01:30:00,46.1,43.022874218883,46.1,79,39.9554191398465,6,12,270,0,0,29.536,0,0,0,70.9,35
2015-05-07 01:35:00,46,43.5197577558228,46,79,39.8581801095142,5,10,292.5,0,0,29.537,0,0,0,70.9,35
2015-05-07 01:40:00,45.9,42.7846882253793,45.9,79,39.7609404673957,6,12,247.5,0,0,29.536,0,0,0,70.9,35
2015-05-07 01:45:00,45.9,44.134086989952,45.9,79,39.7609404673957,4,8,270,0,0,29.538,0,0,0,70.9,35
2015-05-07 01:50:00,45.8,45.8,45.8,79,39.6637002134852,3,9,270,0,0,29.543,0,0,0,70.9,35
2015-05-07 01:55:00,45.7,43.903054728021,45.7,79,39.5664593477769,4,11,270,0,0,29.542,0,0,0,70.9,35
2015-05-07 02:00:00,45.6,45.6,45.6,79,39.4692178702651,3,10,337.5,0,0,29.548,0,0.001,0,70.9,35
2015-05-07 02:05:00,45.5,45.5,45.5,80,39.6946825350812,3,12,292.5,0,0,29.547,0,0,0,70.9,35
2015-05-07 02:10:00,45.4,43.5565063351243,45.4,80,39.5972955936266,4,12,292.5,0,0,29.549,0,0,0,70.9,35
2015-05-07 02:15:00,45.3,42.6975665844476,45.3,80,39.4999080717106,5,13,292.5,0,0,29.551,0,0,0,70.9,35
2015-05-07 02:20:00,45.2,42.5801107028226,45.2,80,39.402519969328,5,12,292.5,0,0,29.552,0,0,0,70.9,35
2015-05-07 02:25:00,45.1,45.1,45.1,80,39.3051312864736,3,9,270,0,0,29.554,0,0,0,70.9,35
2015-05-07 02:30:00,45,43.0944418112621,45,80,39.2077420231423,4,12,292.5,0,0,29.556,0,0,0,70.9,34
2015-05-07 02:35:00,45,45,45,80,39.2077420231423,3,9,292.5,0,0,29.555,0,0,0,70.9,35
2015-05-07 02:40:00,45,43.0944418112621,45,80,39.2077420231423,4,10,315,0,0,29.558,0,0,0,70.9,35
2015-05-07 02:45:00,45,45,45,80,39.2077420231423,3,8,315,0,0,29.56,0,0,0,70.9,35
2015-05-07 02:50:00,44.9,44.9,44.9,80,39.1103521793287,3,8,270,0,0,29.562,0,0,0,70.9,35
2015-05-07 02:55:00,44.8,44.8,44.8,80,39.0129617550279,3,9,270,0,0,29.563,0,0,0,70.9,34
2015-05-07 03:00:00,44.7,44.7,44.7,80,38.9155707502345,3,10,292.5,0,0,29.565,0,0.001,0,70.9,34
2015-05-07 03:05:00,44.7,44.7,44.7,80,38.9155707502345,3,6,292.5,0,0,29.569,0,0,0,70.9,34
2015-05-07 03:10:00,44.6,44.6,44.6,80,38.8181791649434,2,9,315,0,0,29.571,0,0,0,70.9,34
2015-05-07 03:15:00,44.5,44.5,44.5,80,38.7207869991494,3,8,247.5,0,0,29.573,0,0,0,70.9,34
2015-05-07 03:20:00,44.4,44.4,44.4,81,38.9409934460022,2,8,247.5,0,0,29.578,0,0,0,70.9,34
2015-05-07 03:25:00,44.3,44.3,44.3,81,38.8434576977461,2,7,315,0,0,29.582,0,0,0,70.9,34
2015-05-07 03:30:00,44.2,44.2,44.2,81,38.7459214000866,2,6,292.5,0,0,29.584,0,0,0,70.9,34
2015-05-07 03:35:00,44.1,44.1,44.1,81,38.6483845530189,2,7,292.5,0,0,29.583,0,0,0,70.9,34
2015-05-07 03:40:00,44.1,44.1,44.1,81,38.6483845530189,3,9,292.5,0,0,29.584,0,0,0,70.9,34
2015-05-07 03:45:00,44,44,44,81,38.5508471565384,2,7,315,0,0,29.584,0,0,0,70.9,34
2015-05-07 03:50:00,43.9,43.9,43.9,81,38.4533092106405,2,6,270,0,0,29.588,0,0,0,71.1,34
2015-05-07 03:55:00,43.8,43.8,43.8,81,38.3557707153205,1,5,270,0,0,29.587,0,0,0,71.1,34
2015-05-07 04:00:00,43.8,43.8,43.8,81,38.3557707153205,2,7,270,0,0,29.591,0,0.001,0,71.1,34
2015-05-07 04:05:00,43.7,43.7,43.7,81,38.2582316705738,2,5,292.5,0,0,29.593,0,0,0,71.1,34
2015-05-07 04:10:00,43.6,43.6,43.6,81,38.1606920763958,1,4,292.5,0,0,29.593,0,0,0,71.1,34
2015-05-07 04:15:00,43.5,43.5,43.5,82,38.3760425255754,0,3,0,0,0,29.595,0,0,0,71.1,34
2015-05-07 04:20:00,43.4,43.4,43.4,82,38.2783611295718,1,5,292.5,0,0,29.6,0,0,0,71.1,34
2015-05-07 04:25:00,43.3,43.3,43.3,82,38.1806792149968,1,4,270,0,0,29.601,5,0,0,71.1,34
2015-05-07 04:30:00,43.2,43.2,43.2,82,38.0829967818461,1,3,270,0,0,29.605,8,0,0,71.1,35
2015-05-07 04:35:00,43.2,43.2,43.2,82,38.0829967818461,1,5,270,0,0,29.606,11,0,0,71.2,34
2015-05-07 04:40:00,43.1,43.1,43.1,82,37.9853138301157,1,4,270,0,0,29.606,14,0,0,71.2,34
2015-05-07 04:45:00,43.1,43.1,43.1,82,37.9853138301157,1,6,292.5,0,0,29.609,19,0,0,71.4,34
2015-05-07 04:50:00,43.1,43.1,43.1,83,38.2942980926697,0,2,0,0,0,29.608,19,0,0,71.4,34
2015-05-07 04:55:00,43,43,43,83,38.1964754483256,0,2,0,0,0,29.614,20,0,0,71.6,34
2015-05-07 05:00:00,43,43,43,83,38.1964754483256,0,2,0,0,0,29.614,28,0,0,71.6,34
2015-05-07 05:05:00,43.1,43.1,43.1,83,38.2942980926697,0,2,0,0,0,29.614,34,0,0,71.8,34
2015-05-07 05:10:00,43.1,43.1,43.1,83,38.2942980926697,0,2,0,0,0,29.62,37,0,0,71.8,34
2015-05-07 05:15:00,43.3,43.3,43.3,83,38.4899419175118,2,5,292.5,0,0,29.62,48,0,0,71.8,34
2015-05-07 05:20:00,43.6,43.6,43.6,83,38.7834039952144,1,5,202.5,0,0,29.623,61,0,0,71.8,33
2015-05-07 05:25:00,43.8,43.8,43.8,83,38.9790429406851,1,4,202.5,0,0,29.622,75,0,0,71.8,33
2015-05-07 05:30:00,44.1,44.1,44.1,83,39.2724976994676,2,6,202.5,0,0,29.623,72,0,0,71.9,33
2015-05-07 05:35:00,44.2,44.2,44.2,83,39.3703149765634,1,4,202.5,0,0,29.624,65,0,0,71.9,33
2015-05-07 05:40:00,44.5,44.5,44.5,83,39.6637638804069,0,4,0,0,0,29.628,97,0,0.2,71.9,33
2015-05-07 05:45:00,44.7,44.7,44.7,83,39.8593940434692,2,8,202.5,0,0,29.629,119,0,0.5,71.8,33
2015-05-07 05:50:00,45,45,45,83,40.1528356288854,1,5,225,0,0,29.631,135,0,0.5,71.8,33
2015-05-07 05:55:00,45.2,45.2,45.2,83,40.3484609130874,1,4,225,0,0,29.634,143,0,0.6,71.9,33
2015-05-07 06:00:00,45.6,45.6,45.6,82,40.4272320589466,3,8,225,0,0,29.637,152,0.002,0.6,71.9,33
2015-05-07 06:05:00,45.8,45.8,45.8,81,40.3064362368194,2,7,225,0,0,29.639,164,0,0.6,71.9,33
2015-05-07 06:10:00,46,46,46,81,40.5014907030114,2,8,202.5,0,0,29.641,130,0,0.6,72.1,33
2015-05-07 06:15:00,46.2,46.2,46.2,80,40.3763748727804,2,9,202.5,0,0,29.638,130,0,0.6,72.1,33
2015-05-07 06:20:00,46.4,46.4,46.4,79,40.247132560184,1,4,225,0,0,29.638,156,0,0.7,72.1,33
2015-05-07 06:25:00,46.6,46.6,46.6,79,40.4416051149171,1,6,225,0,0,29.639,110,0,0.7,72.1,33
2015-05-07 06:30:00,46.7,46.7,46.7,78,40.2107582168906,1,6,225,0,0,29.642,150,0,0.8,72.1,33
2015-05-07 06:35:00,46.9,46.9,46.9,78,40.4049347447084,1,5,225,0,0,29.643,242,0,0.9,72.1,33
2015-05-07 06:40:00,47.2,47.2,47.2,77,40.3636426425533,2,8,225,0,0,29.642,227,0,0.8,72.1,33
2015-05-07 06:45:00,47.4,47.4,47.4,77,40.5575169611207,1,3,225,0,0,29.644,97,0,0.7,72.1,33
2015-05-07 06:50:00,47.5,47.5,47.5,76,40.3176215818292,1,6,225,0,0,29.645,109,0,0.7,72.1,33
2015-05-07 06:55:00,47.6,47.6,47.6,75,40.0734930943449,2,8,225,0,0,29.649,150,0,0.7,72.3,33
2015-05-07 07:00:00,47.6,47.6,47.6,74,39.7285456656174,3,9,337.5,0,0,29.649,179,0.003,0.9,72.3,32
2015-05-07 07:05:00,47.7,47.7,47.7,74,39.8250267682638,2,6,337.5,0,0,29.652,199,0,0.9,72.3,32
2015-05-07 07:10:00,48.2,48.2,48.2,74,40.3074206964125,1,6,337.5,0,0,29.652,303,0,1.2,72.3,32
2015-05-07 07:15:00,49,49,49,73,40.7279593847557,2,7,202.5,0,0,29.651,298,0,1,72.3,32
2015-05-07 07:20:00,49.4,49.4,49.4,71,40.3965307378334,2,7,225,0,0,29.654,356,0,1.2,71.9,32
2015-05-07 07:25:00,50.1,50.1,50.1,69,40.3315077260191,2,9,225,0,0,29.655,423,0,1.3,72.1,32
2015-05-07 07:30:00,50.3,50.3,50.3,69,40.5228400417086,3,7,270,0,0,29.655,555,0,1.5,72.3,32
2015-05-07 07:35:00,50.6,50.6,50.6,67,40.0521084323557,3,9,247.5,0,0,29.653,535,0,1.5,72.4,32
2015-05-07 07:40:00,50.6,50.6,50.6,67,40.0521084323557,4,11,270,0,0,29.654,414,0,1.2,72.6,32
2015-05-07 07:45:00,51.2,51.2,51.2,66,40.2366886293368,3,10,247.5,0,0,29.653,465,0,1.5,72.8,32
2015-05-07 07:50:00,51.1,51.1,51.1,65,39.7491063208844,5,12,247.5,0,0,29.655,543,0,1.7,72.8,32
2015-05-07 07:55:00,51.4,51.4,51.4,65,40.0340574848234,3,11,292.5,0,0,29.656,509,0,1.7,73,32
2015-05-07 08:00:00,51.4,51.4,51.4,64,39.6357487516742,2,9,225,0,0,29.656,504,0.008,1.8,73,31
2015-05-07 08:05:00,51.3,51.3,51.3,63,39.137278284805,5,9,270,0,0,29.655,525,0,1.9,73.1,33
2015-05-07 08:10:00,51.3,51.3,51.3,64,39.5409395969068,4,9,270,0,0,29.658,522,0,1.9,73.1,32
2015-05-07 08:15:00,51.7,51.7,51.7,64,39.9201695253307,4,11,315,0,0,29.661,594,0,2.1,73.1,33
2015-05-07 08:20:00,52.2,52.2,52.2,64,40.3941818471196,3,8,270,0,0,29.665,456,0,1.5,73.5,33
2015-05-07 08:25:00,52.4,52.4,52.4,62,39.7668677441029,4,11,225,0,0,29.663,181,0,0.6,72.3,31
2015-05-07 08:30:00,51.7,51.7,51.7,63,39.5158050634737,4,11,270,0,0,29.664,190,0,0.8,71.9,32
2015-05-07 08:35:00,51.2,51.2,51.2,64,39.446129326999,3,9,225,0,0,29.664,242,0,1.1,71.9,31
2015-05-07 08:40:00,51.2,51.2,51.2,65,39.8440911215652,4,9,292.5,0,0,29.669,215,0,0.8,71.4,33
2015-05-07 08:45:00,51.3,51.3,51.3,65,39.939074842872,1,7,292.5,0,0,29.668,156,0,0.6,71.8,34
2015-05-07 08:50:00,51.2,51.2,51.2,64,39.446129326999,4,10,247.5,0,0,29.669,156,0,0.6,70.4,32
2015-05-07 08:55:00,51.1,51.1,51.1,64,39.3513179419312,3,9,225,0,0,29.672,170,0,0.7,69.6,34
2015-05-07 09:00:00,50.8,50.8,50.8,64,39.0668770955703,5,10,247.5,0,0,29.67,133,0.007,0.5,69.7,35
2015-05-07 09:05:00,50.8,50.8,50.8,64,39.0668770955703,3,10,202.5,0,0,29.672,169,0,0.8,70.4,35
2015-05-07 09:10:00,50.6,50.6,50.6,64,38.877244288502,2,9,202.5,0,0,29.677,188,0,0.9,70.9,35
2015-05-07 09:15:00,50.9,50.9,50.9,64,39.1616918262365,2,7,202.5,0,0,29.68,260,0,1.3,71.2,34
2015-05-07 09:20:00,51,51,51,64,39.2565054416835,3,7,247.5,0,0,29.676,231,0,1,71.8,34
2015-05-07 09:25:00,51.4,51.4,51.4,64,39.6357487516742,1,6,247.5,0,0,29.679,158,0,0.7,72.3,35
2015-05-07 09:30:00,51.2,51.2,51.2,63,39.0426437119831,3,9,247.5,0,0,29.678,142,0,0.6,72.6,34
2015-05-07 09:35:00,50.8,50.8,50.8,64,39.0668770955703,4,10,270,0,0,29.68,121,0,0.3,72.6,33
2015-05-07 09:40:00,50.5,50.5,50.5,64,38.7824262120605,4,10,292.5,0,0,29.68,100,0,0,73,33
2015-05-07 09:45:00,50.3,50.3,50.3,65,38.9891890557695,3,11,292.5,0,0,29.681,95,0,0,73.1,32
2015-05-07 09:50:00,50.2,50.2,50.2,65,38.8941945398955,5,13,292.5,0,0,29.683,112,0,0.5,73,31
2015-05-07 09:55:00,50.2,50.2,50.2,66,39.2850813095544,2,9,315,0,0,29.683,135,0,0.7,73,32
2015-05-07 10:00:00,49.9,48.1005371391989,49.9,68,39.7649201024881,5,12,270,0,0,29.687,210,0.004,1.2,73.3,33
2015-05-07 10:05:00,49.2,47.946119311815,49.2,70,39.83981322946,4,12,337.5,0,0,29.684,252,0,1.5,73.6,32
2015-05-07 10:10:00,49.1,47.1608900861987,49.1,71,40.108536571698,5,9,315,0,0,29.686,224,0,1.3,74,33
2015-05-07 10:15:00,49.2,49.2,49.2,72,40.5647549479782,3,8,247.5,0,0,29.688,141,0,0.7,74.3,33
2015-05-07 10:20:00,48.8,46.8085224413236,48.8,71,39.8205345580993,5,7,315,0,0,29.689,137,0,0.7,74.5,32
2015-05-07 10:25:00,48.7,48.7,48.7,72,40.0839586696779,2,6,292.5,0,0,29.686,174,0,1,74.7,32
2015-05-07 10:30:00,48.8,48.8,48.8,72,40.1801196021956,3,7,292.5,0,0,29.686,183,0,1,75,32
2015-05-07 10:35:00,49.2,49.2,49.2,73,40.9205890448895,2,6,292.5,0,0,29.686,224,0,1.2,75.2,32
2015-05-07 10:40:00,49.6,49.6,49.6,72,40.9493768794259,2,8,292.5,0,0,29.689,336,0,2,75.6,32
2015-05-07 10:45:00,50.4,50.4,50.4,71,41.3564546196117,2,5,315,0,0,29.69,406,0,2.5,75.9,32
2015-05-07 10:50:00,50.4,50.4,50.4,70,40.9898036958975,4,9,315,0,0,29.69,357,0,2.1,76.3,32
2015-05-07 10:55:00,50.4,50.4,50.4,70,40.9898036958975,3,8,292.5,0,0,29.692,289,0,1.6,76.6,31
2015-05-07 11:00:00,50.6,50.6,50.6,71,41.5484289341558,2,5,292.5,0,0,29.693,207,0.005,1.1,76.8,31
2015-05-07 11:05:00,50.3,50.3,50.3,70,40.8939761381877,2,7,315,0,0,29.693,165,0,0.8,76.8,31
2015-05-07 11:10:00,50.3,50.3,50.3,70,40.8939761381877,2,6,315,0,0,29.693,228,0,1.2,77,31
2015-05-07 11:15:00,50.9,50.9,50.9,68,40.7199150872175,3,10,225,0,0,29.694,314,0,1.8,77.2,31
2015-05-07 11:20:00,51.5,51.5,51.5,67,40.9100438201285,2,8,202.5,0,0,29.692,495,0,2.9,77.3,31
2015-05-07 11:25:00,53.1,53.1,53.1,65,41.6485972744298,3,7,225,0,0,29.688,583,0,3.5,77.5,30
2015-05-07 11:30:00,53.7,53.7,53.7,62,40.9945251814139,2,7,337.5,0,0,29.687,561,0,3.9,77.7,30
2015-05-07 11:35:00,53.4,53.4,53.4,63,41.1243384000647,3,9,247.5,0,0,29.686,442,0,3.4,77.7,30
2015-05-07 11:40:00,53.2,53.2,53.2,62,40.5223729917692,5,11,270,0,0,29.689,193,0,2.7,77.3,30
2015-05-07 11:45:00,54.3,54.3,54.3,59,40.2805466750695,2,10,292.5,0,0,29.688,441,0,3.1,77.3,30
2015-05-07 11:50:00,54,54,54,59,39.9989358198947,2,6,225,0,0,29.685,365,0,2.4,77.5,29
2015-05-07 11:55:00,54.3,54.3,54.3,59,40.2805466750695,3,8,202.5,0,0,29.684,391,0,3.1,77.7,30
2015-05-07 12:00:00,55.1,55.1,55.1,59,41.031451809771,5,13,315,0,0,29.69,643,0.009,4,77.5,29
2015-05-07 12:05:00,54.3,54.3,54.3,60,40.7136417131064,6,13,337.5,0,0,29.693,449,0,2.9,77.3,29
2015-05-07 12:10:00,53.7,53.7,53.7,62,40.9945251814139,6,13,337.5,0,0,29.695,356,0,2.4,77.3,29
2015-05-07 12:15:00,53.3,53.3,53.3,61,40.197968046575,6,11,292.5,0,0,29.696,256,0,1.5,77.2,29
2015-05-07 12:20:00,53.1,53.1,53.1,62,40.4279389918296,5,10,270,0,0,29.697,273,0,1.6,77,30
2015-05-07 12:25:00,53.6,53.6,53.6,62,40.900097118084,2,6,292.5,0,0,29.695,286,0,1.8,77.2,30
2015-05-07 12:30:00,54.1,54.1,54.1,61,40.9519374651033,2,7,270,0,0,29.699,376,0,2.2,77.3,30
2015-05-07 12:35:00,54.6,54.6,54.6,59,40.5621458409336,4,9,247.5,0,0,29.698,413,0,2.4,77.5,29
2015-05-07 12:40:00,54.6,54.6,54.6,59,40.5621458409336,2,8,225,0,0,29.696,296,0,1.6,77.7,30
2015-05-07 12:45:00,54.5,54.5,54.5,60,40.9017489009524,3,8,180,0,0,29.697,259,0,1.4,77.9,30
2015-05-07 12:50:00,54.6,54.6,54.6,58,40.1219600849955,2,8,225,0,0,29.698,304,0,1.5,77.2,27
2015-05-07 12:55:00,54.6,54.6,54.6,59,40.5621458409336,2,9,247.5,0,0,29.694,300,0,1.8,75.9,29
2015-05-07 13:00:00,54.8,54.8,54.8,57,39.8619925830527,5,9,270,0,0,29.697,349,0.008,2.2,75.2,28
2015-05-07 13:05:00,55.2,55.2,55.2,56,39.7808322003571,4,10,315,0,0,29.695,638,0,3.5,74.5,28
2015-05-07 13:10:00,56.8,56.8,56.8,54,40.3346723790826,4,10,247.5,0,0,29.694,879,0,4.6,73.1,29
2015-05-07 13:15:00,57.6,57.6,57.6,52,40.1045525575854,4,11,225,0,0,29.699,951,0,4.5,72.6,30
2015-05-07 13:20:00,56.9,56.9,56.9,52,39.4574869791631,5,10,292.5,0,0,29.696,333,0,2.5,71.4,31
2015-05-07 13:25:00,56.1,56.1,56.1,53,39.2052849567893,6,12,270,0,0,29.694,323,0,2.6,71.1,30
2015-05-07 13:30:00,56.4,56.4,56.4,53,39.4832686632353,4,13,225,0,0,29.698,378,0,2.5,71.4,31
2015-05-07 13:35:00,56.6,56.6,56.6,52,39.1801495629067,6,14,315,0,0,29.699,912,0,4.2,72.3,30
2015-05-07 13:40:00,57.2,57.2,57.2,51,39.2367510790467,6,12,270,0,0,29.697,425,0,3.6,72.8,30
2015-05-07 13:45:00,56.8,56.8,56.8,51,38.8678283321319,5,12,247.5,0,0,29.698,487,0,3.2,73.3,30
2015-05-07 13:50:00,57.4,57.4,57.4,52,39.919684543145,5,10,225,0,0,29.693,815,0,3.4,74,30
2015-05-07 13:55:00,57.5,57.5,57.5,51,39.513426189737,3,9,202.5,0,0,29.699,337,0,2.1,74.5,29
2015-05-07 14:00:00,57.1,57.1,57.1,52,39.6423707240219,3,8,202.5,0,0,29.695,465,0.014,2.8,74.9,29
2015-05-07 14:05:00,57.5,57.5,57.5,52,40.0121193368359,5,13,202.5,0,0,29.695,593,0,2.7,75.2,29
2015-05-07 14:10:00,57.1,57.1,57.1,52,39.6423707240219,6,11,202.5,0,0,29.695,821,0,3.6,75.6,29
2015-05-07 14:15:00,57.3,57.3,57.3,50,38.8220123005076,6,14,202.5,0,0,29.695,306,0,2.9,75.9,29
2015-05-07 14:20:00,56.9,56.9,56.9,51,38.9600614403443,4,14,225,0,0,29.695,295,0,2.1,76.1,28
2015-05-07 14:25:00,56.8,56.8,56.8,52,39.3650427469803,4,9,202.5,0,0,29.696,325,0,2.1,76.1,28
2015-05-07 14:30:00,57.5,57.5,57.5,51,39.513426189737,4,11,202.5,0,0,29.697,648,0,2.9,76.3,28
2015-05-07 14:35:00,57.2,57.2,57.2,51,39.2367510790467,4,12,270,0,0,29.696,568,0,2.3,76.3,27
2015-05-07 14:40:00,57,57,57,52,39.5499296381636,4,10,315,0,0,29.7,264,0,1.8,76.3,27
2015-05-07 14:45:00,57.3,57.3,57.3,51,39.3289777301105,2,7,202.5,0,0,29.699,667,0,2.9,76.3,27
2015-05-07 14:50:00,57.1,57.1,57.1,51,39.1445228137593,5,11,315,0,0,29.699,353,0,2.1,76.3,27
2015-05-07 14:55:00,57.3,57.3,57.3,50,38.8220123005076,3,11,292.5,0,0,29.698,426,0,2,76.3,27
2015-05-07 15:00:00,56.9,56.9,56.9,51,38.9600614403443,5,11,247.5,0,0,29.697,739,0.012,2.8,76.3,26
2015-05-07 15:05:00,57.4,57.4,57.4,50,38.9140225680955,4,13,225,0,0,29.696,690,0,2.3,76.3,27
2015-05-07 15:10:00,57.9,57.9,57.9,50,39.374049069807,3,12,247.5,0,0,29.694,605,0,2.2,76.3,27
2015-05-07 15:15:00,57.5,57.5,57.5,50,39.0060311798753,6,13,315,0,0,29.693,685,0,2.5,76.3,27
2015-05-07 15:20:00,57,57,57,51,39.0522929342059,5,9,337.5,0,0,29.694,321,0,1.7,76.4,27
2015-05-07 15:25:00,57.9,57.9,57.9,49,38.8567463260582,4,11,225,0,0,29.693,672,0,2.4,76.4,27
2015-05-07 15:30:00,57.9,57.9,57.9,49,38.8567463260582,6,13,247.5,0,0,29.695,526,0,2,76.4,27
2015-05-07 15:35:00,57.3,57.3,57.3,50,38.8220123005076,7,16,315,0,0,29.696,640,0,2.2,76.4,27
2015-05-07 15:40:00,57.2,57.2,57.2,50,38.7300003770668,7,15,315,0,0,29.696,404,0,1.7,76.4,26
2015-05-07 15:45:00,57,57,57,50,38.545971562448,5,11,225,0,0,29.693,596,0,1.9,76.4,26
2015-05-07 15:50:00,57,57,57,50,38.545971562448,6,14,225,0,0,29.694,485,0,1.7,76.4,26
2015-05-07 15:55:00,56.4,56.4,56.4,51,38.4988797549277,5,11,225,0,0,29.696,129,0,1.2,76.3,26
2015-05-07 16:00:00,56.8,56.8,56.8,51,38.8678283321319,2,7,315,0,0,29.697,550,0.012,1.6,76.3,26
2015-05-07 16:05:00,57.1,57.1,57.1,50,38.6379867977285,6,9,292.5,0,0,29.697,599,0,1.2,76.4,26
2015-05-07 16:10:00,56.8,56.8,56.8,49,37.8470350779652,6,12,315,0,0,29.697,546,0,1.5,76.3,26
2015-05-07 16:15:00,56.6,56.6,56.6,50,38.1778940610096,5,11,315,0,0,29.695,530,0,1.5,76.1,26
2015-05-07 16:20:00,57,57,57,50,38.545971562448,5,14,292.5,0,0,29.697,508,0,1.4,76.1,26
2015-05-07 16:25:00,56.4,56.4,56.4,50,37.9938453734746,6,11,270,0,0,29.696,266,0,1,75.9,26
2015-05-07 16:30:00,56.3,56.3,56.3,50,37.9018185453467,8,18,315,0,0,29.693,482,0,1.2,75.9,26
2015-05-07 16:35:00,56.7,56.7,56.7,50,38.2699159205061,5,13,270,0,0,29.695,428,0,1.1,75.9,26
2015-05-07 16:40:00,56.6,56.6,56.6,50,38.1778940610096,6,11,247.5,0,0,29.695,423,0,1,75.9,26
2015-05-07 16:45:00,56.4,56.4,56.4,50,37.9938453734746,5,11,225,0,0,29.697,418,0,1,75.9,26
2015-05-07 16:50:00,56.4,56.4,56.4,50,37.9938453734746,6,12,292.5,0,0,29.696,401,0,1,75.9,26
2015-05-07 16:55:00,56.8,56.8,56.8,50,38.3619361238815,4,12,270,0,0,29.698,387,0,0.9,75.9,26
2015-05-07 17:00:00,56.8,56.8,56.8,50,38.3619361238815,5,11,292.5,0,0,29.697,384,0.011,0.8,76.1,26
2015-05-07 17:05:00,57,57,57,50,38.545971562448,3,9,315,0,0,29.698,353,0,0.7,76.1,26
2015-05-07 17:10:00,56.6,56.6,56.6,49,37.6634291387556,4,10,292.5,0,0,29.702,128,0,0.2,76.3,26
2015-05-07 17:15:00,55.6,55.6,55.6,51,37.7609050987988,4,10,225,0,0,29.704,96,0,0,76.1,26
2015-05-07 17:20:00,54.8,54.8,54.8,52,37.5158276731686,2,8,225,0,0,29.703,99,0,0,76.3,26
2015-05-07 17:25:00,54.5,54.5,54.5,52,37.2383911160549,5,12,270,0,0,29.703,96,0,0,76.3,26
2015-05-07 17:30:00,54.6,54.6,54.6,52,37.3308715425191,2,7,270,0,0,29.701,267,0,0,76.3,26
2015-05-07 17:35:00,54.7,54.7,54.7,51,36.9305600695822,6,11,292.5,0,0,29.703,80,0,0,76.3,26
2015-05-07 17:40:00,54.2,54.2,54.2,52,36.9609403916222,5,12,292.5,0,0,29.704,61,0,0,76.3,26
2015-05-07 17:45:00,53.6,53.6,53.6,52,36.4059964364584,5,13,270,0,0,29.704,64,0,0,76.1,26
2015-05-07 17:50:00,53.5,53.5,53.5,52,36.3135002667198,3,8,247.5,0,0,29.704,139,0,0,76.1,26
2015-05-07 17:55:00,53.6,53.6,53.6,52,36.4059964364584,6,12,315,0,0,29.708,195,0,0,76.1,26
2015-05-07 18:00:00,53.5,53.5,53.5,52,36.3135002667198,6,15,292.5,0,0,29.709,89,0.004,0,76.1,26
2015-05-07 18:05:00,53.6,53.6,53.6,53,36.8882174868654,6,13,315,0,0,29.71,192,0,0,76.1,26
2015-05-07 18:10:00,54,54,54,52,36.7759653707316,4,12,292.5,0,0,29.71,160,0,0,76.1,26
2015-05-07 18:15:00,53.9,53.9,53.9,51,36.1923657608489,5,10,270,0,0,29.711,149,0,0,76.1,26
2015-05-07 18:20:00,53.7,53.7,53.7,52,36.4984910316887,4,9,337.5,0,0,29.713,146,0,0,76.1,26
2015-05-07 18:25:00,53.8,53.8,53.8,52,36.5909840524509,3,8,292.5,0,0,29.713,133,0,0,76.3,26
2015-05-07 18:30:00,53.7,53.7,53.7,52,36.4984910316887,5,12,292.5,0,0,29.713,117,0,0,76.3,26
2015-05-07 18:35:00,53.6,53.6,53.6,52,36.4059964364584,4,9,315,0,0,29.714,105,0,0,76.3,25
2015-05-07 18:40:00,53.3,53.3,53.3,52,36.1285032035566,5,10,292.5,0,0,29.712,86,0,0,76.3,26
2015-05-07 18:45:00,53.1,53.1,53.1,53,36.4246889794455,4,8,247.5,0,0,29.711,72,0,0,76.3,26
2015-05-07 18:50:00,53,53,53,54,36.8050137238766,3,7,22.5,0,0,29.711,64,0,0,76.3,26
2015-05-07 18:55:00,52.8,52.8,52.8,54,36.6191824840107,4,9,292.5,0,0,29.713,40,0,0,76.3,26
2015-05-07 19:00:00,52.3,52.3,52.3,55,36.6185426070336,5,9,292.5,0,0,29.713,31,0.004,0,76.3,26
2015-05-07 19:05:00,51.9,51.9,51.9,55,36.2460338372786,5,9,0,0,0,29.717,27,0,0,76.3,26
2015-05-07 19:10:00,51.7,51.7,51.7,56,36.5151660518989,2,7,0,0,0,29.716,22,0,0,76.1,26
2015-05-07 19:15:00,51.5,51.5,51.5,56,36.3285042157919,6,10,292.5,0,0,29.715,19,0,0,76.1,26
2015-05-07 19:20:00,51.3,51.3,51.3,56,36.1418367194272,5,10,292.5,0,0,29.716,17,0,0,76.1,26
2015-05-07 19:25:00,51.1,51.1,51.1,57,36.4022732578134,1,5,292.5,0,0,29.718,16,0,0,75.9,26
2015-05-07 19:30:00,51,51,51,57,36.3087411881056,2,7,292.5,0,0,29.719,14,0,0,75.9,26
2015-05-07 19:35:00,50.7,50.7,50.7,58,36.4676108614808,4,8,292.5,0,0,29.721,11,0,0,75.7,26
2015-05-07 19:40:00,50.5,50.5,50.5,58,36.2801534989383,3,9,315,0,0,29.725,9,0,0,75.7,26
2015-05-07 19:45:00,50.3,50.3,50.3,59,36.5247738656365,3,7,315,0,0,29.73,6,0,0,75.6,26
2015-05-07 19:50:00,50,50,50,59,36.2430070834108,1,5,315,0,0,29.727,3,0,0,75.6,26
2015-05-07 19:55:00,49.8,49.8,49.8,59,36.0551560621114,2,7,315,0,0,29.726,0,0,0,75.6,26
2015-05-07 20:00:00,49.6,49.6,49.6,59,35.8672998407076,3,7,315,0,0,29.727,0,0.001,0,75.4,26
2015-05-07 20:05:00,49.4,49.4,49.4,59,35.6794384189834,1,5,315,0,0,29.729,0,0,0,75.4,27
2015-05-07 20:10:00,49.2,49.2,49.2,60,35.9152033647694,2,6,315,0,0,29.731,0,0,0,75.4,27
2015-05-07 20:15:00,49,49,49,60,35.7269624221981,2,5,315,0,0,29.731,0,0,0,75.2,27
2015-05-07 20:20:00,48.8,48.8,48.8,60,35.5387164294858,2,5,315,0,0,29.734,0,0,0,75.2,27
2015-05-07 20:25:00,48.7,48.7,48.7,60,35.4445915392632,2,6,315,0,0,29.735,0,0,0,75.2,27
2015-05-07 20:30:00,48.6,48.6,48.6,60,35.3504653864291,2,7,315,0,0,29.737,0,0,0,75.2,27
2015-05-07 20:35:00,48.5,48.5,48.5,60,35.2563379709581,2,5,315,0,0,29.737,0,0,0,75,27
2015-05-07 20:40:00,48.3,48.3,48.3,61,35.4838836046511,1,4,315,0,0,29.738,0,0,0,75,27
2015-05-07 20:45:00,48.2,48.2,48.2,61,35.3895706781949,0,3,0,0,0,29.735,0,0,0,75,27
2015-05-07 20:50:00,48.1,46.675441871194,48.1,61,35.2952565263203,4,6,315,0,0,29.737,0,0,0,75,27
2015-05-07 20:55:00,47.9,47.9,47.9,61,35.1066245462203,1,4,315,0,0,29.738,0,0,0,75,27
2015-05-07 21:00:00,47.7,47.7,47.7,62,35.3267391345129,1,5,315,0,0,29.738,0,0.001,0,74.9,27
2015-05-07 21:05:00,47.6,47.6,47.6,62,35.2322397948999,0,2,0,0,0,29.739,0,0,0,74.9,27
2015-05-07 21:10:00,47.5,47.5,47.5,63,35.5403549736445,0,5,0,0,0,29.739,0,0,0,74.9,27
2015-05-07 21:15:00,47.3,47.3,47.3,63,35.3509971472522,1,5,315,0,0,29.74,0,0,0,74.9,27
2015-05-07 21:20:00,47,47,47,64,35.4630907584575,0,2,0,0,0,29.739,0,0,0,74.9,27
2015-05-07 21:25:00,46.8,46.8,46.8,65,35.6637385427536,0,2,0,0,0,29.739,0,0,0,74.9,27